GW1213 Weather Reports


time (UTC)temp
C
wind
direction
speed
KPH
gust
KPH
rain 1hr
cm
rain 24hr
cm
rain mn
cm
humidity
%
barometer
mb
20260905044038 22 0 0.0 0.0 0.00 0.43 0.00 92 1012.1
20260905043539 22 0 0.0 0.0 0.00 0.43 0.00 92 1012.1
20260905043104 22 0 0.0 0.0 0.00 0.43 0.00 92 1012.1
20260905042537 22 0 0.0 0.0 0.00 0.43 0.00 92 1012.1
20260905042036 22 0 0.0 0.0 0.00 0.43 0.00 92 1012.3
20260905041601 22 0 0.0 0.0 0.00 0.43 0.00 92 1012.3
20260905041038 22 0 0.0 0.0 0.00 0.43 0.00 92 1012.3
20260905040539 22 0 0.0 0.0 0.00 0.43 0.00 92 1012.5
20260905040105 22 0 0.0 0.0 0.00 0.43 0.00 92 1012.5
20260905035538 22 0 0.0 0.0 0.00 0.43 0.43 92 1012.4
20260905035038 22 0 0.0 0.0 0.00 0.43 0.43 92 1012.4
20260905034609 22 0 0.0 0.0 0.00 0.43 0.43 92 1012.4
20260905034041 23 0 0.0 0.0 0.00 0.43 0.43 92 1012.4
20260905033537 23 0 0.0 0.0 0.00 0.43 0.43 92 1012.2
20260905033059 23 0 0.0 0.0 0.00 0.43 0.43 91 1012.3
20260905032536 23 0 0.0 0.0 0.00 0.43 0.43 91 1012.2
20260905032035 23 0 0.0 0.0 0.00 0.43 0.43 92 1012.3
20260905031557 23 0 0.0 0.0 0.00 0.43 0.43 92 1012.3
20260905031035 23 0 0.0 0.0 0.00 0.43 0.43 92 1012.3
20260905030537 23 0 0.0 0.0 0.00 0.43 0.43 92 1012.4
20260905030118 23 0 0.0 0.0 0.00 0.43 0.43 92 1012.4
20260905025537 23 0 0.0 0.0 0.00 0.43 0.43 92 1012.3
20260905025038 23 0 0.0 0.0 0.00 0.43 0.43 92 1012.3
20260905024605 23 0 0.0 0.0 0.00 0.43 0.43 92 1012.3
20260905024036 23 0 0.0 0.0 0.00 0.43 0.43 91 1012.4
20260905023537 23 0 0.0 0.0 0.00 0.43 0.43 91 1012.4
20260905023056 23 0 0.0 0.0 0.00 0.43 0.43 91 1012.5
20260905022538 23 0 0.0 0.0 0.00 0.43 0.43 91 1012.6
20260905022035 23 0 0.0 0.0 0.00 0.43 0.43 92 1012.5
20260905021608 23 0 0.0 0.0 0.00 0.43 0.43 91 1012.3
20260905021037 23 0 0.0 0.0 0.00 0.43 0.43 91 1012.3
20260905020539 23 0 0.0 0.0 0.00 0.43 0.43 91 1012.4
20260905020106 23 0 0.0 0.0 0.00 0.43 0.43 91 1012.4
20260905015537 23 0 0.0 0.0 0.00 0.43 0.43 91 1012.1
20260905015043 23 0 0.0 0.0 0.00 0.43 0.43 91 1012.0
20260905014603 23 0 0.0 0.0 0.00 0.43 0.43 90 1012.0
20260905014035 23 0 0.0 0.0 0.00 0.43 0.43 90 1012.1
20260905013538 23 0 0.0 0.0 0.00 0.43 0.43 90 1011.9
20260905013100 23 0 0.0 0.0 0.00 0.43 0.43 89 1011.9
20260905012540 23 0 0.0 0.0 0.00 0.43 0.43 89 1011.9
20260905012038 24 0 0.0 0.0 0.00 0.43 0.43 88 1011.9
20260905011607 24 0 0.0 0.0 0.00 0.43 0.43 88 1011.9
20260905011037 24 0 0.0 0.0 0.00 0.43 0.43 87 1011.9
20260905010540 24 0 0.0 0.0 0.00 0.43 0.43 87 1011.7
20260905010058 24 0 0.0 0.0 0.00 0.43 0.43 86 1011.6
20260905005537 24 0 0.0 0.0 0.00 0.43 0.43 86 1011.5
20260905005037 24 0 0.0 0.0 0.00 0.43 0.43 85 1011.4
20260905004608 24 0 0.0 0.0 0.00 0.43 0.43 85 1011.4
20260905004038 25 0 0.0 0.0 0.00 0.43 0.43 85 1011.3
20260905003539 25 0 0.0 0.0 0.00 0.43 0.43 84 1011.3
20260905003102 25 0 0.0 4.8 0.00 0.43 0.43 84 1011.2
20260905002537 25 0 0.0 4.8 0.00 0.43 0.43 84 1011.3
20260905002037 25 0 0.0 4.8 0.00 0.43 0.43 83 1011.2
20260905001606 25 0 0.0 0.0 0.00 0.43 0.43 84 1011.1
20260905001038 25 0 0.0 1.6 0.00 0.43 0.43 83 1011.5
20260905000538 25 0 0.0 1.6 0.00 0.43 0.43 83 1011.6
20260905000107 25 0 0.0 4.8 0.00 0.43 0.43 84 1011.7
20260904235536 25 258 1.6 4.8 0.00 0.43 0.43 82 1011.8
20260904235038 25 219 0.0 6.4 0.00 0.43 0.43 82 1011.8
20260904234608 25 238 0.0 6.4 0.00 0.43 0.43 81 1011.9
20260904234040 26 275 0.0 6.4 0.00 0.43 0.43 81 1011.9
20260904233539 26 243 1.6 6.4 0.00 0.43 0.43 80 1011.8
20260904233059 26 197 0.0 4.8 0.00 0.43 0.43 81 1011.7
20260904232538 26 194 0.0 4.8 0.00 0.43 0.43 81 1011.5
20260904232035 26 0 0.0 0.0 0.00 0.43 0.43 82 1011.4
20260904231603 26 0 0.0 3.2 0.00 0.43 0.43 81 1011.5
20260904231035 26 0 0.0 3.2 0.00 0.43 0.43 81 1011.4
20260904230537 26 219 0.0 3.2 0.00 0.43 0.43 81 1010.8
20260904230057 26 0 0.0 1.6 0.00 0.43 0.43 80 1010.9
20260904225536 26 0 0.0 3.2 0.00 0.43 0.43 81 1011.3
20260904225038 26 0 0.0 3.2 0.00 0.43 0.43 80 1011.3
20260904224602 26 0 0.0 4.8 0.00 0.43 0.43 81 1011.3
20260904224035 26 0 0.0 6.4 0.00 0.43 0.43 81 1011.3
20260904223538 26 0 1.6 8.0 0.00 0.43 0.43 80 1011.4
20260904223103 27 180 1.6 8.0 0.00 0.43 0.43 82 1011.6
20260904222539 27 212 1.6 6.4 0.00 0.43 0.43 82 1011.7
20260904222037 27 0 0.0 4.8 0.00 0.43 0.43 81 1011.5
20260904221604 27 0 0.0 4.8 0.00 0.43 0.43 81 1011.4
20260904221039 27 0 0.0 3.2 0.00 0.43 0.43 82 1011.5
20260904220538 27 208 0.0 1.6 0.00 0.43 0.43 81 1011.7
20260904220110 28 0 0.0 1.6 0.00 0.43 0.43 79 1011.9
20260904215537 28 0 0.0 3.2 0.00 0.43 0.43 76 1012.4
20260904215041 28 0 0.0 3.2 0.00 0.43 0.43 74 1012.9
20260904214600 28 5 0.0 3.2 0.00 0.43 0.43 72 1012.9
20260904214034 28 0 0.0 0.0 0.00 0.43 0.43 73 1012.9
20260904213537 28 0 0.0 1.6 0.00 0.43 0.43 74 1012.7
20260904213110 28 0 0.0 3.2 0.00 0.43 0.43 76 1012.4
20260904212538 28 0 0.0 3.2 0.00 0.43 0.43 75 1012.4
20260904212038 28 258 0.0 4.8 0.00 0.43 0.43 75 1012.0
20260904211609 28 0 0.0 9.7 0.00 0.43 0.43 76 1011.8
20260904211037 28 0 1.6 9.7 0.00 0.43 0.43 77 1012.0
20260904210538 29 352 1.6 4.8 0.00 0.43 0.43 80 1012.0
20260904205538 29 0 0.0 0.0 0.00 0.43 0.43 80 1011.4
20260904205037 29 0 0.0 0.0 0.00 0.43 0.43 80 1011.3
20260904204556 29 0 0.0 0.0 0.00 0.43 0.43 78 1011.3
20260904204037 30 0 0.0 0.0 0.00 0.43 0.43 79 1011.5
20260904203536 30 0 0.0 0.0 0.00 0.43 0.43 80 1011.6
20260904203103 30 0 0.0 0.0 0.00 0.43 0.43 75 1011.6
20260904202537 30 0 0.0 0.0 0.00 0.43 0.43 75 1011.5
20260904202037 30 0 0.0 0.0 0.00 0.43 0.43 75 1011.3
20260904201606 30 0 0.0 0.0 0.00 0.43 0.43 75 1011.5
20260904201038 31 0 0.0 0.0 0.00 0.43 0.43 73 1011.4
20260904200538 31 0 0.0 0.0 0.00 0.43 0.43 72 1011.2
20260904200122 31 0 0.0 0.0 0.00 0.43 0.43 71 1010.6
20260904195538 32 0 0.0 0.0 0.00 0.43 0.43 67 1010.9
20260904195039 32 0 0.0 0.0 0.00 0.43 0.43 68 1011.1
20260904194634 32 0 0.0 0.0 0.00 0.43 0.43 63 1011.4
20260904194038 33 0 0.0 1.6 0.00 0.43 0.43 61 1011.7
20260904193538 33 0 0.0 3.2 0.00 0.43 0.43 60 1011.7
20260904193103 33 0 0.0 4.8 0.00 0.43 0.43 59 1011.8
20260904192537 34 338 0.0 4.8 0.00 0.43 0.43 57 1011.7
20260904192038 35 274 0.0 4.8 0.00 0.43 0.43 57 1011.6
20260904191619 35 0 1.6 4.8 0.00 0.43 0.43 56 1011.8
20260904191040 35 47 1.6 8.0 0.00 0.43 0.43 54 1011.7
20260904190538 35 192 1.6 8.0 0.00 0.43 0.43 55 1011.7
20260904190058 35 212 1.6 8.0 0.00 0.43 0.43 53 1011.7
20260904185538 35 230 0.0 4.8 0.00 0.43 0.43 54 1011.7
20260904185038 35 0 0.0 4.8 0.00 0.43 0.43 55 1011.9
20260904184610 35 0 1.6 4.8 0.00 0.43 0.43 55 1011.9
20260904184038 35 0 1.6 4.8 0.00 0.43 0.43 55 1012.1
20260904183537 34 166 0.0 3.2 0.00 0.43 0.43 55 1012.2
20260904183100 34 179 0.0 1.6 0.00 0.43 0.43 57 1012.3
20260904182537 33 0 0.0 1.6 0.00 0.43 0.43 60 1012.4
20260904182036 33 0 0.0 4.8 0.00 0.43 0.43 60 1012.4
20260904181558 33 0 0.0 4.8 0.00 0.43 0.43 59 1012.5
20260904181037 33 352 1.6 4.8 0.00 0.43 0.43 58 1012.5
20260904180538 34 360 0.0 8.0 0.00 0.43 0.43 59 1012.6
20260904180105 34 304 1.6 8.0 0.00 0.43 0.43 56 1012.7
20260904175540 34 258 1.6 6.4 0.00 0.43 0.43 56 1012.8
20260904175037 34 269 0.0 6.4 0.00 0.43 0.43 58 1012.9
20260904174605 33 240 1.6 4.8 0.00 0.43 0.43 60 1012.9
20260904174037 33 0 0.0 4.8 0.00 0.43 0.43 60 1012.9
20260904173537 33 0 0.0 4.8 0.00 0.43 0.43 61 1013.0
20260904173106 32 170 0.0 3.2 0.00 0.43 0.43 61 1013.0
20260904172537 32 0 0.0 4.8 0.00 0.43 0.43 61 1013.1
20260904172038 32 13 1.6 4.8 0.00 0.43 0.43 59 1013.1
20260904171556 32 348 0.0 4.8 0.00 0.43 0.43 62 1013.1
20260904171037 32 350 1.6 4.8 0.00 0.43 0.43 62 1013.1
20260904170538 32 0 0.0 4.8 0.00 0.43 0.43 63 1013.1
20260904165541 32 303 0.0 4.8 0.00 0.43 0.43 64 1013.2
20260904165037 32 346 1.6 4.8 0.00 0.43 0.43 63 1013.3
20260904164600 32 0 0.0 4.8 0.00 0.43 0.43 65 1013.4
20260904164037 32 0 0.0 9.7 0.00 0.43 0.43 63 1013.4
20260904163537 32 352 3.2 9.7 0.00 0.43 0.43 63 1013.5
20260904163056 32 329 0.0 4.8 0.00 0.43 0.43 63 1013.5
20260904162537 32 0 1.6 4.8 0.00 0.43 0.43 62 1013.6
20260904162038 32 311 1.6 4.8 0.00 0.43 0.43 61 1013.6
20260904161555 32 337 0.0 3.2 0.00 0.43 0.43 66 1013.7
20260904161038 31 322 0.0 1.6 0.00 0.43 0.43 64 1013.7
20260904160541 31 0 0.0 4.8 0.00 0.43 0.43 65 1013.8
20260904160106 31 0 0.0 4.8 0.00 0.43 0.43 66 1013.7
20260904155534 31 322 0.0 4.8 0.00 0.43 0.43 66 1013.7
20260904155037 31 351 1.6 4.8 0.00 0.43 0.43 65 1013.6
20260904154620 31 350 0.0 4.8 0.00 0.43 0.43 67 1013.8
20260904154038 30 181 0.0 4.8 0.00 0.43 0.43 67 1013.7
20260904153538 30 306 0.0 6.4 0.00 0.43 0.43 71 1013.8
20260904153102 30 351 1.6 6.4 0.00 0.43 0.43 69 1013.8
20260904152538 30 350 1.6 6.4 0.00 0.43 0.43 68 1013.8
20260904152037 30 0 0.0 3.2 0.00 0.43 0.43 72 1013.8
20260904151608 29 334 0.0 3.2 0.00 0.43 0.43 74 1013.8
20260904151037 29 331 0.0 3.2 0.00 0.43 0.43 74 1013.8
20260904150539 29 346 0.0 3.2 0.00 0.43 0.43 73 1013.9
20260904150104 29 0 0.0 4.8 0.00 0.43 0.43 75 1014.0
20260904145538 29 0 0.0 4.8 0.00 0.43 0.43 76 1014.0
20260904145038 28 0 0.0 4.8 0.00 0.43 0.43 75 1013.9
20260904144601 28 0 0.0 0.0 0.00 0.43 0.43 76 1014.0
20260904144040 28 0 0.0 0.0 0.00 0.43 0.43 79 1014.1
20260904143539 28 0 0.0 0.0 0.00 0.43 0.43 80 1014.1
20260904143058 27 0 0.0 1.6 0.00 0.43 0.43 81 1014.2
20260904142538 27 0 0.0 3.2 0.00 0.43 0.43 82 1014.1
20260904142037 27 0 0.0 3.2 0.00 0.43 0.43 84 1014.1
20260904141621 27 0 0.0 1.6 0.00 0.43 0.43 84 1014.2
20260904141037 27 0 0.0 3.2 0.00 0.43 0.43 84 1014.2
20260904140538 27 0 0.0 3.2 0.00 0.43 0.43 84 1014.0
20260904140106 26 0 0.0 1.6 0.00 0.43 0.43 85 1014.0
20260904135538 26 0 0.0 1.6 0.00 0.43 0.43 86 1014.1
20260904135037 26 0 0.0 3.2 0.00 0.43 0.43 86 1014.1
20260904134619 26 0 0.0 3.2 0.00 0.43 0.43 87 1014.1
20260904134037 25 9 0.0 3.2 0.00 0.43 0.43 88 1014.1
20260904133537 25 0 0.0 3.2 0.00 0.43 0.43 89 1014.2
20260904133115 25 0 0.0 3.2 0.00 0.43 0.43 90 1014.2
20260904132538 25 0 0.0 3.2 0.00 0.43 0.43 90 1014.3
20260904132035 25 0 0.0 6.4 0.00 0.43 0.43 92 1014.2
20260904131614 25 0 1.6 6.4 0.00 0.43 0.43 91 1014.1
20260904131040 25 0 0.0 3.2 0.00 0.43 0.43 92 1014.1
20260904130538 25 0 0.0 0.0 0.00 0.43 0.43 92 1014.2
20260904130054 24 0 0.0 3.2 0.00 0.43 0.43 93 1014.3
20260904125538 24 0 0.0 3.2 0.00 0.43 0.43 93 1014.2
20260904125042 24 338 0.0 3.2 0.00 0.43 0.43 94 1014.2
20260904124600 24 0 0.0 0.0 0.00 0.43 0.43 94 1014.1
20260904124038 24 0 0.0 0.0 0.00 0.43 0.43 95 1014.1
20260904123537 23 0 0.0 0.0 0.00 0.43 0.43 95 1013.9
20260904123111 23 0 0.0 0.0 0.00 0.43 0.43 95 1013.8
20260904122538 23 0 0.0 0.0 0.00 0.43 0.43 95 1013.7
20260904122038 23 0 0.0 0.0 0.00 0.43 0.43 95 1013.6
20260904121559 23 0 0.0 0.0 0.00 0.43 0.43 96 1013.6
20260904121038 23 0 0.0 0.0 0.00 0.43 0.43 96 1013.5
20260904120538 23 0 0.0 0.0 0.00 0.43 0.43 97 1013.7
20260904120053 23 0 0.0 0.0 0.00 0.43 0.43 97 1013.6
20260904115538 22 0 0.0 0.0 0.00 0.43 0.43 97 1013.7
20260904115038 22 0 0.0 0.0 0.00 0.43 0.43 97 1013.6
20260904114600 22 0 0.0 0.0 0.00 0.43 0.43 97 1013.6
20260904114038 22 0 0.0 0.0 0.00 0.43 0.43 98 1013.6
20260904113538 22 0 0.0 0.0 0.00 0.43 0.43 98 1013.6
20260904113102 22 0 0.0 0.0 0.00 0.43 0.43 98 1013.5
20260904112538 22 0 0.0 0.0 0.00 0.43 0.43 98 1013.5
20260904112037 22 0 0.0 0.0 0.00 0.43 0.43 97 1013.6
20260904111602 22 0 0.0 0.0 0.00 0.43 0.43 97 1013.5
20260904111038 22 0 0.0 0.0 0.00 0.43 0.43 97 1013.5
20260904110538 22 0 0.0 0.0 0.00 0.43 0.43 97 1013.5
20260904110057 22 0 0.0 0.0 0.00 0.43 0.43 97 1013.4
20260904105538 21 0 0.0 0.0 0.00 0.43 0.43 97 1013.4
20260904105038 21 0 0.0 0.0 0.00 0.43 0.43 97 1013.2
20260904104603 21 0 0.0 0.0 0.00 0.43 0.43 97 1013.3
20260904104037 21 0 0.0 0.0 0.00 0.43 0.43 97 1013.3
20260904103538 21 0 0.0 0.0 0.00 0.43 0.43 97 1013.3
20260904103105 21 0 0.0 0.0 0.00 0.43 0.43 97 1013.2
20260904102538 21 0 0.0 0.0 0.00 0.43 0.43 97 1013.2
20260904102038 21 0 0.0 0.0 0.00 0.43 0.43 97 1013.1
20260904101600 21 0 0.0 0.0 0.00 0.43 0.43 97 1013.1
20260904101038 21 0 0.0 0.0 0.00 0.43 0.43 97 1013.1
20260904100538 22 0 0.0 0.0 0.00 0.43 0.43 97 1013.1
20260904100105 21 0 0.0 0.0 0.00 0.43 0.43 97 1013.0
20260904095538 22 0 0.0 0.0 0.00 0.43 0.43 97 1013.0
20260904095039 22 0 0.0 0.0 0.00 0.43 0.43 97 1013.0
20260904094603 22 0 0.0 0.0 0.00 0.43 0.43 96 1013.0
20260904094038 22 0 0.0 0.0 0.00 0.43 0.43 97 1012.9
20260904093538 22 0 0.0 0.0 0.00 0.43 0.43 97 1013.0
20260904093102 22 0 0.0 0.0 0.00 0.43 0.43 96 1013.1
20260904092537 22 0 0.0 0.0 0.00 0.43 0.43 96 1013.1
20260904092037 22 0 0.0 0.0 0.00 0.43 0.43 96 1013.1
20260904091555 22 0 0.0 0.0 0.00 0.43 0.43 96 1013.1
20260904091037 22 0 0.0 0.0 0.00 0.43 0.43 96 1013.1
20260904090537 22 0 0.0 0.0 0.00 0.43 0.43 96 1013.2
20260904085537 22 0 0.0 0.0 0.00 0.43 0.43 96 1013.2
20260904085041 22 0 0.0 0.0 0.00 0.43 0.43 97 1013.0
20260904084601 22 0 0.0 0.0 0.00 0.43 0.43 96 1013.2
20260904084037 22 0 0.0 0.0 0.00 0.43 0.43 96 1013.1
20260904083537 22 0 0.0 0.0 0.00 0.43 0.43 96 1013.1
20260904083056 22 0 0.0 0.0 0.00 0.43 0.43 96 1013.1
20260904082538 22 0 0.0 0.0 0.00 0.43 0.43 97 1013.2
20260904082034 22 0 0.0 0.0 0.00 0.43 0.43 97 1013.2
20260904081601 22 0 0.0 0.0 0.00 0.43 0.43 97 1013.2
20260904081038 22 0 0.0 0.0 0.00 0.43 0.43 96 1013.2
20260904080538 22 0 0.0 0.0 0.00 0.43 0.43 96 1013.1
20260904080107 22 0 0.0 0.0 0.00 0.43 0.43 96 1013.3
20260904075538 22 0 0.0 0.0 0.00 0.43 0.43 96 1013.3
20260904075038 22 0 0.0 0.0 0.00 0.43 0.43 96 1013.1
20260904074556 22 0 0.0 0.0 0.00 0.43 0.43 96 1012.9
20260904074035 22 0 0.0 0.0 0.00 0.43 0.43 96 1013.0
20260904073537 22 0 0.0 0.0 0.00 0.43 0.43 96 1012.8
20260904073103 22 0 0.0 0.0 0.00 0.43 0.43 96 1012.9
20260904072537 22 0 0.0 0.0 0.00 0.43 0.43 96 1012.8
20260904072038 22 0 0.0 0.0 0.00 0.43 0.43 96 1012.8
20260904071602 22 0 0.0 0.0 0.00 0.43 0.43 96 1012.7
20260904071041 22 0 0.0 0.0 0.00 0.43 0.43 95 1012.6
20260904070540 22 0 0.0 0.0 0.00 0.43 0.43 95 1012.6
20260904065537 22 0 0.0 1.6 0.00 0.43 0.43 95 1012.2
20260904065037 22 0 0.0 1.6 0.00 0.43 0.43 95 1012.3
20260904064621 22 0 0.0 1.6 0.00 0.43 0.43 95 1012.4
20260904064041 22 0 0.0 0.0 0.00 0.43 0.43 95 1012.4
20260904063538 22 0 0.0 0.0 0.00 0.43 0.43 95 1012.5
20260904063103 22 0 0.0 0.0 0.00 0.43 0.43 95 1012.7
20260904062537 22 0 0.0 0.0 0.00 0.43 0.43 94 1012.4
20260904062037 22 0 0.0 0.0 0.00 0.43 0.43 94 1012.5
20260904061601 22 0 0.0 0.0 0.00 0.43 0.43 95 1012.6
20260904061037 22 0 0.0 3.2 0.03 0.43 0.43 94 1012.8
20260904060537 22 0 0.0 6.4 0.33 0.43 0.43 94 1012.9
20260904060058 22 78 0.0 6.4 0.43 0.43 0.43 94 1012.7
20260904055537 22 66 0.0 6.4 0.43 0.43 0.43 94 1012.8
20260904055038 22 111 1.6 6.4 0.43 0.43 0.43 94 1012.9
20260904054603 22 0 0.0 4.8 0.43 0.43 0.43 94 1013.4
20260904054034 23 0 0.0 0.0 0.43 0.43 0.43 94 1013.5
20260904053537 23 0 0.0 0.0 0.43 0.43 0.43 93 1013.7
20260904053100 23 0 0.0 0.0 0.43 0.43 0.43 92 1013.9
20260904052541 23 0 0.0 1.6 0.43 0.43 0.43 92 1013.7
20260904052038 23 0 0.0 3.2 0.43 0.43 0.43 91 1014.2
20260904051605 23 0 0.0 4.8 0.43 0.43 0.43 90 1015.0
20260904051037 24 0 0.0 14.5 0.38 0.38 0.38 88 1015.0
20260904050537 25 273 1.6 14.5 0.10 0.10 0.10 86 1015.6
20260904050126 25 339 4.8 14.5 0.00 0.00 0.00 83 1015.4
20260904045535 25 360 3.2 9.7 0.00 0.00 0.00 81 1015.6
20260904045038 26 276 3.2 12.9 0.00 0.00 0.00 81 1015.9
20260904044603 26 342 4.8 16.1 0.00 0.00 0.00 81 1015.4